sat.trackr.live / text

‹ back to catalog

GALAXY 35 (G-35)

NORAD 54741 · 2022-170A

PAYLOAD ACTIVE UNKNOWN

§ Identity

Operator
Country
ITSO
Launch date
2022-12-13
Launch site
FRGUI
Launch vehicle
Mass (kg)
RCS (m²)

Purposes: comms

External: N2YO · Heavens-Above · Gunter

§ Orbital elements

Epoch: 2026-05-25T03:18:38.663136Z

Period
1,436.10 min
Inclination
0.0398°
Eccentricity
0.0002068
Mean motion
1.00271756 rev/d
Perigee alt
35,777.9 km
Apogee alt
35,795.3 km
Semi-major
42,164.7 km
B*
0.0000e+0
RAAN
114.6167°
Arg perigee
309.1510°
Mean anomaly
135.5164°
Rev number
1,266

§ Raw data

GALAXY 35 (G-35)1 54741U 22170A   26145.13794749 -.00000164  00000+0  00000+0 0  99952 54741   0.0398 114.6167 0002068 309.1510 135.5164  1.00271756 12663

JSON: /api/v1/satellites/54741 · /tle

For live sub-satellite position, see the globe view (requires WebGL).

§ Visibility from observer

Set your observer location to see the next 7 days of passes ≥ 10°. The values pass through the URL so the page stays shareable.

No JS? Fill the form by hand. The geolocation button needs JavaScript.